Weather History for Council Bluffs, IA

Change the Weather History Date:

Tuesday, September 17, 2013

  Actual Average Record
Temperature  
Mean Temperature 63 °F -  
Max Temperature 71 °F 74 °F 93 °F (2000)
Min Temperature 55 °F 53 °F 46 °F (1999)
Degree Days  
Heating Degree Days 2    
Growing Degree Days 13 (Base 50)    
Moisture  
Dew Point 62 °F    
Average Humidity 98    
Maximum Humidity 100    
Minimum Humidity 88    
Precipitation  
Precipitation 0.16 in - - ()
Sea Level Pressure  
Sea Level Pressure 30.05 in    
Wind  
Wind Speed 10 mph (SE)    
Max Wind Speed 16 mph    
Max Gust Speed 23 mph    
Visibility 7 miles    
Events Rain    
Averages and records for this station are not official NWS values.
T = Trace of Precipitation, MM = Missing Value Source: NWS Daily Summary

Daily Weather History Graph

Daily Weather History Graph

Search for Another Location

Airport:

Trip Planner

Search our weather history database for the weather conditions in past years. The results will help you decide how hot, cold, wet, or windy it might be!

Date:

Astronomy

Sep. 17, 2013 Rise Set
Actual Time 7:05 AM CDT 7:28 PM CDT
Civil Twilight 6:38 AM CDT 7:55 PM CDT
Nautical Twilight 6:05 AM CDT 8:28 PM CDT
Astronomical Twilight 5:32 AM CDT 9:01 PM CDT
Moon 6:16 PM CDT (9/17) 5:00 AM CDT (9/17)
Length of Visible Light 13h 17m
Length of Day
12h 22m
Waxing Gibbous, 96% of the Moon is Illuminated
Sep 17
Waxing Gibbous
Sep 19
Full
Sep 26
Last Quarter
Oct 4
New
Oct 11
First Quarter

Hourly Weather History & Observations

Time (CDT) Temp. Dew Point Humidity Pressure Visibility Wind Dir Wind Speed Gust Speed Precip Events Conditions
12:15 AM 57.2 °F 57.2 °F 100% 30.20 in 7.0 mi ESE 9.2 mph - N/A Rain Light Rain
12:35 AM 57.2 °F 57.2 °F 100% 30.20 in 9.0 mi ESE 6.9 mph - N/A   Overcast
12:55 AM 57.2 °F 57.2 °F 100% 30.20 in 10.0 mi SE 6.9 mph - N/A   Overcast
1:15 AM 57.2 °F 57.2 °F 100% 30.20 in 8.0 mi ESE 8.1 mph - N/A   Light Drizzle
1:35 AM 57.2 °F 57.2 °F 100% 30.20 in 5.0 mi ESE 6.9 mph - N/A   Light Drizzle
1:55 AM 57.2 °F 57.2 °F 100% 30.19 in 7.0 mi ESE 6.9 mph - 0.02 in   Light Drizzle
2:15 AM 57.2 °F 57.2 °F 100% 30.19 in 3.0 mi SE 8.1 mph - N/A Rain Light Rain
2:35 AM 55.4 °F 55.4 °F 100% 30.18 in 4.0 mi ESE 8.1 mph - N/A   Light Drizzle
2:55 AM 55.4 °F 55.4 °F 100% 30.18 in 5.0 mi ESE 9.2 mph - 0.04 in   Light Drizzle
3:15 AM 55.4 °F 55.4 °F 100% 30.17 in 5.0 mi SE 9.2 mph - N/A   Light Drizzle
3:35 AM 55.4 °F 55.4 °F 100% 30.16 in 3.0 mi SE 10.4 mph - N/A Rain Light Rain
3:55 AM 55.4 °F 55.4 °F 100% 30.15 in 4.0 mi SE 9.2 mph - 0.05 in Rain Light Rain
4:15 AM 55.4 °F 55.4 °F 100% 30.15 in 3.0 mi SE 10.4 mph - N/A Rain Light Rain
4:35 AM 57.2 °F 57.2 °F 100% 30.14 in 6.0 mi SE 10.4 mph - N/A   Overcast
4:55 AM 57.2 °F 57.2 °F 100% 30.14 in 5.0 mi SE 9.2 mph - 0.03 in   Overcast
5:15 AM 57.2 °F 57.2 °F 100% 30.14 in 3.0 mi SE 9.2 mph - N/A   Overcast
5:35 AM 57.2 °F 57.2 °F 100% 30.13 in 3.0 mi SE 11.5 mph - N/A   Overcast
5:55 AM 57.2 °F 57.2 °F 100% 30.13 in 3.0 mi SE 9.2 mph 15.0 mph N/A   Overcast
6:15 AM 57.2 °F 57.2 °F 100% 30.13 in 5.0 mi SSE 10.4 mph - N/A   Overcast
6:35 AM 57.2 °F 57.2 °F 100% 30.12 in 6.0 mi SE 10.4 mph - N/A   Overcast
6:55 AM 57.2 °F 57.2 °F 100% 30.13 in 5.0 mi SSE 10.4 mph - N/A   Overcast
7:15 AM 57.2 °F 57.2 °F 100% 30.13 in 3.0 mi SSE 10.4 mph - N/A   Overcast
7:35 AM 57.2 °F 57.2 °F 100% 30.13 in 2.5 mi SSE 11.5 mph - N/A   Overcast
7:55 AM 57.2 °F 57.2 °F 100% 30.12 in 1.0 mi SSE 11.5 mph - N/A   Overcast
8:15 AM 57.2 °F 57.2 °F 100% 30.12 in 2.0 mi SSE 11.5 mph - N/A   Overcast
8:35 AM 57.2 °F 57.2 °F 100% 30.11 in 1.8 mi SSE 10.4 mph - N/A   Overcast
8:55 AM 57.2 °F 57.2 °F 100% 30.11 in 2.5 mi SSE 10.4 mph - 0.01 in   Overcast
9:15 AM 59.0 °F 59.0 °F 100% 30.11 in 2.5 mi SSE 9.2 mph - N/A   Overcast
9:35 AM 59.0 °F 59.0 °F 100% 30.11 in 2.5 mi SSE 10.4 mph - N/A   Overcast
9:55 AM 59.0 °F 59.0 °F 100% 30.11 in 3.0 mi SSE 10.4 mph - N/A   Overcast
10:15 AM 59.0 °F 59.0 °F 100% 30.11 in 3.0 mi SSE 9.2 mph - N/A   Overcast
10:35 AM 59.0 °F 59.0 °F 100% 30.10 in 3.0 mi SSE 11.5 mph - N/A   Light Drizzle
10:55 AM 60.8 °F 60.8 °F 100% 30.09 in 4.0 mi SSE 10.4 mph - N/A   Overcast
11:15 AM 60.8 °F 60.8 °F 100% 30.09 in 4.0 mi SSE 11.5 mph - N/A   Overcast
11:35 AM 60.8 °F 60.8 °F 100% 30.08 in 1.5 mi SSE 10.4 mph - N/A Rain Light Rain
11:55 AM 60.8 °F 60.8 °F 100% 30.08 in 6.0 mi SSE 9.2 mph - 0.01 in   Overcast
12:15 PM 62.6 °F 62.6 °F 100% 30.07 in 5.0 mi SSE 11.5 mph - N/A   Overcast
12:35 PM 62.6 °F 62.6 °F 100% 30.06 in 8.0 mi SSE 11.5 mph 17.3 mph N/A   Overcast
12:55 PM 62.6 °F 62.6 °F 100% 30.05 in 10.0 mi SSE 12.7 mph - N/A   Overcast
1:15 PM 64.4 °F 64.4 °F 100% 30.04 in 10.0 mi SSE 10.4 mph - N/A   Overcast
1:35 PM 64.4 °F 64.4 °F 100% 30.03 in 8.0 mi South 12.7 mph - N/A   Overcast
1:55 PM 64.4 °F 64.4 °F 100% 30.02 in 7.0 mi SSE 9.2 mph 16.1 mph N/A   Overcast
2:15 PM 66.2 °F 64.4 °F 94% 30.01 in 8.0 mi SSE 11.5 mph - N/A   Overcast
2:35 PM 66.2 °F 66.2 °F 100% 30.00 in 8.0 mi SSE 12.7 mph - N/A   Overcast
2:55 PM 66.2 °F 66.2 °F 100% 29.99 in 9.0 mi SSE 15.0 mph - N/A   Overcast
3:15 PM 66.2 °F 66.2 °F 100% 29.98 in 9.0 mi SSE 12.7 mph - N/A   Overcast
3:35 PM 66.2 °F 66.2 °F 100% 29.97 in 10.0 mi SSE 10.4 mph 17.3 mph N/A   Overcast
3:55 PM 68.0 °F 66.2 °F 94% 29.97 in 10.0 mi SE 15.0 mph - N/A   Overcast
4:15 PM 68.0 °F 66.2 °F 94% 29.95 in 10.0 mi SE 15.0 mph - N/A   Overcast
4:35 PM 69.8 °F 68.0 °F 94% 29.94 in 10.0 mi SE 15.0 mph - N/A   Overcast
4:55 PM 69.8 °F 68.0 °F 94% 29.94 in 10.0 mi SSE 13.8 mph - N/A   Overcast
5:15 PM 69.8 °F 68.0 °F 94% 29.93 in 10.0 mi SE 13.8 mph - N/A   Overcast
5:35 PM 69.8 °F 68.0 °F 94% 29.92 in 10.0 mi ESE 12.7 mph - N/A   Overcast
5:55 PM 69.8 °F 68.0 °F 94% 29.92 in 10.0 mi SE 12.7 mph 19.6 mph N/A   Overcast
6:15 PM 69.8 °F 68.0 °F 94% 29.91 in 10.0 mi SE 12.7 mph 20.7 mph N/A   Scattered Clouds
6:35 PM 69.8 °F 68.0 °F 94% 29.90 in 10.0 mi SE 12.7 mph - N/A   Mostly Cloudy
6:55 PM 69.8 °F 68.0 °F 94% 29.90 in 10.0 mi SE 12.7 mph 18.4 mph N/A   Overcast
7:15 PM 69.8 °F 68.0 °F 94% 29.90 in 10.0 mi SE 8.1 mph - N/A   Overcast
7:35 PM 69.8 °F 68.0 °F 94% 29.90 in 10.0 mi SE 8.1 mph - N/A   Overcast
7:55 PM 69.8 °F 68.0 °F 94% 29.90 in 10.0 mi SE 8.1 mph - N/A   Overcast
8:15 PM 69.8 °F 68.0 °F 94% 29.90 in 10.0 mi SE 8.1 mph - N/A   Overcast
8:35 PM 69.8 °F 69.8 °F 100% 29.91 in 10.0 mi SSE 6.9 mph - N/A   Overcast
8:55 PM 71.6 °F 68.0 °F 88% 29.92 in 10.0 mi SSE 12.7 mph 20.7 mph N/A   Overcast
9:15 PM 69.8 °F 68.0 °F 94% 29.92 in 10.0 mi South 13.8 mph 19.6 mph N/A   Overcast
9:35 PM 69.8 °F 68.0 °F 94% 29.93 in 10.0 mi SSE 16.1 mph - N/A   Overcast
9:55 PM 69.8 °F 68.0 °F 94% 29.93 in 10.0 mi South 13.8 mph 23.0 mph N/A   Overcast
10:15 PM 68.0 °F 68.0 °F 100% 29.92 in 10.0 mi SSE 15.0 mph - N/A   Overcast
10:35 PM 68.0 °F 68.0 °F 100% 29.93 in 10.0 mi SSE 15.0 mph 23.0 mph N/A   Overcast
10:55 PM 68.0 °F 68.0 °F 100% 29.93 in 10.0 mi SSE 15.0 mph - N/A   Overcast
11:15 PM 68.0 °F 68.0 °F 100% 29.92 in 9.0 mi South 13.8 mph - N/A   Overcast
11:35 PM 68.0 °F 68.0 °F 100% 29.92 in 10.0 mi South 13.8 mph - N/A   Overcast
11:55 PM 68.0 °F 68.0 °F 100% 29.92 in 10.0 mi South 12.7 mph - N/A   Overcast